When you browse on this site, cookies collect data to enhance your experience and personalize the content and advertising you see.
Visit our Privacy Policy to learn more. By continuing to use the site, you agree to this use of cookies and data.
  • In Hungary
  • List of Countries
  • For 7 days
  • Water Temperature
  • Weather Map
  • News
  • Weather Widgets
  • user-avatar
    Login

    Hourly Weather Strathmore

    Today, 13 November, Wednesday

    Time Temperature Precipitation Wind Pressure Humidity
    00:00 -2°C° 0 mm 1 mps 674 mmHg 87%
    01:00 -2°C° 0 mm 1 mps 674 mmHg 87%
    02:00 -2°C° 0 mm 1 mps 675 mmHg 87%
    03:00 -3°C° 0 mm 2 mps 675 mmHg 86%
    04:00 -5°C° 0 mm 3 mps 675 mmHg 85%
    05:00 -5°C° 0 mm 3 mps 675 mmHg 84%
    06:00 -4°C° 0 mm 2 mps 675 mmHg 83%
    07:00 -5°C° 0 mm 2 mps 675 mmHg 81%
    08:00 -3°C° 0 mm 2 mps 676 mmHg 82%
    09:00 -2°C° 0 mm 3 mps 676 mmHg 82%
    10:00 -1°C° 0 mm 3 mps 677 mmHg 82%
    11:00 0°C° 0 mm 3 mps 677 mmHg 84%
    12:00 0°C° 0 mm 3 mps 677 mmHg 86%
    13:00 +2°C° 0 mm 2 mps 677 mmHg 88%
    14:00 +1°C° 0 mm 2 mps 677 mmHg 86%
    15:00 +1°C° 0 mm 2 mps 677 mmHg 83%
    16:00 -1°C° 0 mm 2 mps 677 mmHg 81%
    17:00 -1°C° 0 mm 2 mps 677 mmHg 81%
    18:00 -2°C° 0 mm 2 mps 677 mmHg 81%
    19:00 -2°C° 0 mm 2 mps 677 mmHg 81%
    20:00 -2°C° 0 mm 2 mps 677 mmHg 80%
    21:00 -3°C° 0 mm 2 mps 677 mmHg 80%
    22:00 -3°C° 0 mm 2 mps 677 mmHg 79%
    23:00 -3°C° 0 mm 2 mps 677 mmHg 79%

    Tomorrow, 14 November, Thursday

    Time Temperature Precipitation Wind Pressure Humidity
    00:00 -4°C° 0 mm 2 mps 676 mmHg 79%
    01:00 -4°C° 0 mm 2 mps 676 mmHg 78%
    02:00 -4°C° 0 mm 2 mps 676 mmHg 78%
    03:00 -2°C° 0 mm 1 mps 676 mmHg 78%
    04:00 -2°C° 0 mm 1 mps 676 mmHg 78%
    05:00 -2°C° 0 mm 1 mps 676 mmHg 79%
    06:00 -3°C° 0 mm 1 mps 676 mmHg 79%
    07:00 -5°C° 0 mm 2 mps 676 mmHg 80%
    08:00 -2°C° 0 mm 1 mps 676 mmHg 81%
    09:00 -1°C° 0 mm 1 mps 676 mmHg 81%
    10:00 0°C° 0 mm 1 mps 676 mmHg 82%
    11:00 0°C° 0 mm 1 mps 675 mmHg 84%
    12:00 0°C° 0 mm 1 mps 675 mmHg 86%
    13:00 +1°C° 0 mm 1 mps 674 mmHg 88%
    14:00 0°C° 0 mm 1 mps 674 mmHg 88%
    15:00 -3°C° 0 mm 2 mps 673 mmHg 89%
    16:00 -4°C° 0 mm 2 mps 672 mmHg 89%
    17:00 -4°C° 0 mm 2 mps 672 mmHg 88%
    18:00 -4°C° 0 mm 2 mps 672 mmHg 87%
    19:00 -4°C° 0 mm 2 mps 672 mmHg 86%
    20:00 -4°C° 0 mm 2 mps 672 mmHg 86%
    21:00 -4°C° 0 mm 2 mps 671 mmHg 86%
    22:00 -4°C° 0 mm 2 mps 671 mmHg 87%
    23:00 -4°C° 0 mm 2 mps 671 mmHg 86%

    Day after tomorrow, 15 November, Friday

    Time Temperature Precipitation Wind Pressure Humidity
    00:00 -4°C° 0 mm 2 mps 671 mmHg 84%
    01:00 -3°C° 0 mm 2 mps 671 mmHg 83%
    02:00 -3°C° 0 mm 2 mps 670 mmHg 81%
    03:00 -2°C° 0 mm 2 mps 670 mmHg 79%
    04:00 -2°C° 0 mm 2 mps 669 mmHg 77%
    05:00 -2°C° 0 mm 2 mps 669 mmHg 76%
    06:00 -1°C° 0 mm 2 mps 669 mmHg 76%
    07:00 -1°C° 0 mm 2 mps 669 mmHg 76%
    08:00 +1°C° 0 mm 2 mps 669 mmHg 79%
    09:00 +1°C° 0 mm 2 mps 669 mmHg 82%
    10:00 +1°C° 0 mm 2 mps 669 mmHg 86%
    11:00 +2°C° 0 mm 2 mps 669 mmHg 87%
    12:00 +2°C° 0 mm 2 mps 669 mmHg 89%
    13:00 +3°C° 0 mm 2 mps 669 mmHg 90%
    14:00 +2°C° 0 mm 2 mps 669 mmHg 88%
    15:00 +2°C° 0 mm 2 mps 669 mmHg 87%
    16:00 +2°C° 0 mm 2 mps 669 mmHg 85%
    17:00 +2°C° 0.1 mm 2 mps 670 mmHg 86%
    18:00 0°C° 0.1 mm 3 mps 671 mmHg 87%
    19:00 0°C° 0.1 mm 3 mps 671 mmHg 88%
    20:00 -1°C° 1.1 mm 4 mps 672 mmHg 91%
    21:00 0°C° 1.1 mm 5 mps 673 mmHg 94%
    22:00 -1°C° 1.1 mm 6 mps 673 mmHg 97%
    23:00 0°C° 0.5 mm 5 mps 674 mmHg 96%

    16 November, Saturday

    Time Temperature Precipitation Wind Pressure Humidity
    00:00 -1°C° 0.5 mm 5 mps 675 mmHg 94%
    01:00 -1°C° 0.5 mm 4 mps 676 mmHg 93%
    02:00 -1°C° 0 mm 4 mps 676 mmHg 90%
    03:00 -1°C° 0 mm 4 mps 676 mmHg 88%
    04:00 -1°C° 0 mm 3 mps 677 mmHg 85%
    05:00 -1°C° 0 mm 3 mps 677 mmHg 83%
    06:00 -1°C° 0 mm 3 mps 678 mmHg 81%
    07:00 -1°C° 0 mm 3 mps 678 mmHg 79%
    08:00 0°C° 0 mm 3 mps 678 mmHg 79%
    09:00 0°C° 0 mm 3 mps 678 mmHg 80%
    10:00 +1°C° 0 mm 3 mps 678 mmHg 81%
    11:00 +2°C° 0 mm 3 mps 678 mmHg 82%
    12:00 +2°C° 0 mm 3 mps 677 mmHg 82%
    13:00 +2°C° 0 mm 3 mps 677 mmHg 83%
    14:00 +1°C° 0 mm 3 mps 676 mmHg 84%
    15:00 +1°C° 0 mm 3 mps 675 mmHg 86%
    16:00 0°C° 0 mm 3 mps 675 mmHg 87%
    17:00 0°C° 0 mm 3 mps 674 mmHg 85%
    18:00 0°C° 0 mm 3 mps 673 mmHg 84%
    19:00 -1°C° 0 mm 4 mps 672 mmHg 82%
    20:00 -1°C° 0 mm 4 mps 672 mmHg 79%
    21:00 -1°C° 0 mm 4 mps 671 mmHg 77%
    22:00 -1°C° 0 mm 4 mps 671 mmHg 74%
    23:00 0°C° 0 mm 4 mps 670 mmHg 73%

    17 November, Sunday

    Time Temperature Precipitation Wind Pressure Humidity
    00:00 0°C° 0 mm 5 mps 670 mmHg 71%
    01:00 +1°C° 0 mm 5 mps 670 mmHg 70%
    02:00 +1°C° 0 mm 4 mps 670 mmHg 71%
    03:00 +1°C° 0 mm 4 mps 669 mmHg 73%
    04:00 +1°C° 0 mm 3 mps 669 mmHg 75%
    05:00 +2°C° 0 mm 3 mps 669 mmHg 75%
    06:00 +2°C° 0 mm 3 mps 669 mmHg 76%
    07:00 +2°C° 0 mm 3 mps 669 mmHg 76%
    08:00 +3°C° 0 mm 3 mps 670 mmHg 75%
    09:00 +4°C° 0 mm 4 mps 670 mmHg 74%
    10:00 +5°C° 0 mm 4 mps 670 mmHg 73%
    11:00 +5°C° 0 mm 4 mps 670 mmHg 72%
    12:00 +6°C° 0 mm 5 mps 670 mmHg 71%
    13:00 +6°C° 0 mm 5 mps 670 mmHg 69%
    14:00 +5°C° 0 mm 5 mps 670 mmHg 72%
    15:00 +4°C° 0 mm 4 mps 669 mmHg 74%
    16:00 +3°C° 0 mm 3 mps 669 mmHg 76%
    17:00 +3°C° 0 mm 3 mps 670 mmHg 75%
    18:00 +3°C° 0 mm 3 mps 670 mmHg 75%
    19:00 +3°C° 0 mm 4 mps 671 mmHg 74%
    20:00 +2°C° 0 mm 3 mps 671 mmHg 75%
    21:00 +2°C° 0 mm 3 mps 671 mmHg 76%
    22:00 +1°C° 0 mm 3 mps 672 mmHg 78%
    23:00 +1°C° 0 mm 3 mps 672 mmHg 78%

    18 November, Monday

    Time Temperature Precipitation Wind Pressure Humidity
    00:00 +1°C° 0 mm 3 mps 672 mmHg 78%
    01:00 0°C° 0 mm 3 mps 673 mmHg 79%
    02:00 +1°C° 0 mm 2 mps 673 mmHg 78%
    03:00 +1°C° 0 mm 2 mps 673 mmHg 77%
    04:00 +2°C° 0 mm 1 mps 673 mmHg 77%
    05:00 +2°C° 0 mm 1 mps 673 mmHg 75%
    06:00 +2°C° 0 mm 1 mps 674 mmHg 74%
    07:00 +2°C° 0 mm 1 mps 674 mmHg 73%
    08:00 +3°C° 0 mm 1 mps 674 mmHg 73%
    09:00 +4°C° 0 mm 1 mps 674 mmHg 74%
    10:00 +4°C° 0 mm 1 mps 675 mmHg 74%
    11:00 +5°C° 0 mm 1 mps 675 mmHg 74%
    12:00 +5°C° 0 mm 1 mps 675 mmHg 75%
    13:00 +4°C° 0 mm 2 mps 675 mmHg 75%
    14:00 +3°C° 0 mm 2 mps 675 mmHg 75%
    15:00 +2°C° 0 mm 2 mps 675 mmHg 75%
    16:00 +1°C° 0 mm 2 mps 675 mmHg 74%
    17:00 +2°C° 0 mm 1 mps 675 mmHg 74%
    18:00 +2°C° 0 mm 1 mps 676 mmHg 73%
    19:00 +2°C° 0 mm 1 mps 676 mmHg 73%
    20:00 +2°C° 0 mm 1 mps 676 mmHg 72%
    21:00 +1°C° 0 mm 1 mps 676 mmHg 72%
    22:00 +1°C° 0 mm 1 mps 677 mmHg 72%
    23:00 +1°C° 0 mm 1 mps 676 mmHg 74%
    Show more